STARLINK-32651, 62314

Orbit data source: Space-Track

STARLINK-32651, 62314 is a payload satellite owned by SpaceX/Seattle (US) in LEO that was launched on Fri, 13 Dec 2024 UTC via an FALCON 9 launch vehicle from the Air Force Western Test Range (AFWTR). Payload-class satellites include a variety of spacecraft equipped with specific instruments for various scientific and technological missions. These include communications satellites like Starlink; space stations such as the ISS; scientific satellites like the Hubble; Earth observation satellites from companies like Planet Labs, Umbra, and HawkEye 360; GPS; miniature CubeSats for education and research; and military/defense satellites.

Loading next visibility...
Identifier
62314, 2024-239P
Orbit
LEO
Country
Flag of USUS
Related business
Manufacturer
SpaceX/Seattle
Mission
Operational Commercial Communications
Bus & Motor
STARLINK V2M, Unknown motor
Mass
730 kg wet, ~700 kg dry
Launch date (UTC)
2024-12-13 (2 years ago)
Launch vehicle
FALCON 9
Launch site
Air Force Western Test Range (AFWTR)
Object type
Payload
Rocket body
Debris
Shape & HBR
Box + 2 Pan, 17.7 m
Radar Cross Section
33.884 m², Large (>1 m²)

Expand to show TLE details & history
Last TLE update: 23 hours ago

TLE from 23 hours ago
0 STARLINK-32651
1 62314U 24239P   26170.94058751  .00022862  00000-0  68536-3 0  9992
2 62314  53.1610  78.6427 0001274 108.9131 251.2010 15.34415495 85044
Epoch: 2026-06-19T22:34Z
TLE epoch observation values (Epoch: 2026-06-19T22:34:26.760Z)
Latitude
-0.00002°
Longitude
-168.13117°
Altitude
463.84 km
Speed
7.636 km/s
True Right ascension
05h 14m 34s
True Declination
0° 00' 00"
Sunlit
Object was in daylight at epoch
Visualization orbit readout
Latitude
Unknown
Longitude
Unknown
Altitude
Unknown
Speed
Unknown
Apparent Right ascension
Unknown
Apparent Declination
Unknown
Sunlit
N/A
Visualization observer readout
Local Sidereal Time
08:42:29
Azimuth
Unknown
Elevation
Unknown
Doppler factor
Unknown
Orbital elements
Apogee altitude
463.785 km
Perigee altitude
462.042 km
Semi-major axis
6,841.051 km
Eccentricity
0.00013
Inclination
53.161°
RAAN
78.6427°
Arg. of periapsis
108.9131°
True anomaly
251.18718°
Mean anomaly
251.201°
Eccentric anomaly
251.19409°
Mean motion
3.83583 °/min
Orbital period
93.85 mins
BSTAR
0.00068536
Loading maneuver chart data...
Computing Atmospheric mass density...
Loading historical data...
Loading historical data...
Loading historical data...
Loading historical data...
Loading historical data...
Loading historical data...
Loading historical data...

Documentation

Showing up to 5 results
|